TimeHST,TemperatureF,Dew PointF,Humidity,Sea Level PressureIn,VisibilityMPH,Wind Direction,Wind SpeedMPH,Gust SpeedMPH,PrecipitationIn,Events,Conditions,WindDirDegrees,DateUTC
12:54 AM,73.9,69.1,85,30.04,10.0,NE,9.2,19.6,N/A,,Overcast,50,2013-07-28 10:54:00
1:54 AM,73.0,70.0,90,30.03,10.0,NE,13.8,19.6,N/A,,Mostly Cloudy,40,2013-07-28 11:54:00
2:54 AM,71.1,69.1,93,30.01,10.0,NE,11.5,19.6,0.02,,Overcast,50,2013-07-28 12:54:00
3:54 AM,71.1,66.0,84,30.01,10.0,NE,6.9,-,N/A,,Partly Cloudy,50,2013-07-28 13:54:00
4:52 AM,69.8,69.8,100,30.00,6.0,NNE,8.1,-,0.00,Rain,Light Rain,20,2013-07-28 14:52:00
4:54 AM,70.0,69.1,97,30.01,7.0,NE,8.1,-,0.00,Rain,Light Rain,40,2013-07-28 14:54:00
5:10 AM,69.8,69.8,100,30.01,10.0,NE,13.8,20.7,0.00,,Overcast,50,2013-07-28 15:10:00
5:54 AM,70.0,66.9,90,30.02,10.0,NE,8.1,-,0.00,,Mostly Cloudy,50,2013-07-28 15:54:00
6:54 AM,73.0,66.9,81,30.03,10.0,NNE,5.8,-,N/A,,Scattered Clouds,30,2013-07-28 16:54:00
7:54 AM,73.9,68.0,82,30.05,10.0,ENE,8.1,-,N/A,,Mostly Cloudy,60,2013-07-28 17:54:00
8:54 AM,79.0,66.0,64,30.04,10.0,NE,10.4,-,N/A,,Partly Cloudy,40,2013-07-28 18:54:00
9:54 AM,81.0,68.0,65,30.03,10.0,NNE,12.7,18.4,N/A,,Scattered Clouds,30,2013-07-28 19:54:00
10:54 AM,82.0,68.0,62,30.02,10.0,NNE,16.1,23.0,N/A,,Scattered Clouds,30,2013-07-28 20:54:00
11:54 AM,82.0,69.1,65,30.01,10.0,NNE,15.0,29.9,N/A,,Scattered Clouds,30,2013-07-28 21:54:00
12:54 PM,82.9,68.0,60,29.99,10.0,NNE,17.3,26.5,N/A,,Partly Cloudy,30,2013-07-28 22:54:00
1:54 PM,84.0,66.9,56,29.97,10.0,NE,18.4,28.8,N/A,,Clear,50,2013-07-28 23:54:00
2:54 PM,81.0,69.1,67,29.96,10.0,NNE,12.7,26.5,N/A,,Partly Cloudy,20,2013-07-29 00:54:00
3:54 PM,81.0,70.0,69,29.96,10.0,NE,16.1,27.6,N/A,,Scattered Clouds,40,2013-07-29 01:54:00
4:54 PM,79.0,72.0,79,29.95,10.0,NNE,13.8,26.5,N/A,,Scattered Clouds,20,2013-07-29 02:54:00
5:54 PM,78.1,72.0,81,29.96,10.0,NNE,16.1,23.0,N/A,,Scattered Clouds,30,2013-07-29 03:54:00
6:54 PM,75.0,72.0,90,29.97,10.0,NNE,15.0,24.2,N/A,,Scattered Clouds,30,2013-07-29 04:54:00
7:07 PM,73.4,73.4,100,29.97,10.0,NNE,10.4,23.0,N/A,,Mostly Cloudy,30,2013-07-29 05:07:00
7:18 PM,73.4,73.4,100,29.97,10.0,NNE,12.7,23.0,N/A,,Mostly Cloudy,30,2013-07-29 05:18:00
7:38 PM,73.4,73.4,100,29.98,7.0,NNE,9.2,-,N/A,,Overcast,20,2013-07-29 05:38:00
7:54 PM,73.0,73.0,100,29.99,10.0,NNE,8.1,-,N/A,,Overcast,20,2013-07-29 05:54:00
8:54 PM,73.0,73.0,100,29.99,9.0,NE,4.6,-,N/A,,Overcast,50,2013-07-29 06:54:00
9:19 PM,-9999,-9999,N/A,29.99,10.0,NNE,11.5,20.7,0.00,,Unknown,30,2013-07-29 07:19:00
9:46 PM,-9999,-9999,N/A,29.99,9.0,NNE,10.4,19.6,0.00,,Unknown,30,2013-07-29 07:46:00
9:54 PM,-9999,-9999,N/A,29.99,8.0,NNE,10.4,20.7,0.00,,Unknown,30,2013-07-29 07:54:00
10:21 PM,-9999,-9999,N/A,30.00,9.0,NNE,9.2,-,0.00,,Unknown,30,2013-07-29 08:21:00
10:35 PM,-9999,-9999,N/A,29.99,9.0,Variable,6.9,16.1,0.00,,Unknown,0,2013-07-29 08:35:00
10:54 PM,-9999,-9999,N/A,29.99,9.0,NE,11.5,20.7,0.00,,Unknown,40,2013-07-29 08:54:00
11:54 PM,73.0,73.0,100,29.98,9.0,NNE,11.5,-,0.00,Rain,Light Rain,30,2013-07-29 09:54:00